User: anonymous   Login
Location: Bagong Pook
(14.2541°N, 120.8791°E)
Time: 13:59:11
(UTC+00:00)
Language:

SL-8 Rocket - Orbit

View from above orbital plane
View from above orbital plane
View from above satellite
View from above satellite

Ground track
Ground track

The orbit is defined by the following mean orbital elements,

1 21088U          26074.28855045 +.00000000 +00000-0 +51376-4 0 00004
2 21088  82.9463 165.8838 0022747  23.1109  30.8833 13.77495047    02
Epoch (UTC): 15 March 2026 06:55:30
Eccentricity: 0.0022747
inclination: 82.9463°
perigee height: 956 km
apogee height: 990 km
right ascension of ascending node: 165.8838°
argument of perigee: 23.1109°
revolutions per day: 13.77495047
mean anomaly at epoch: 30.8833°

The dashed part of the orbit path shows where the satellite is in the earth's shadow,  

DLR